• In Hungary
  • List of Countries
  • For 7 days
  • Water Temperature
  • Satellite Maps
  • Weather Map
  • News
  • Weather Widgets
  • user-avatar
    Login

    Hourly Weather Gar

    Today, 13 November, Tuesday

    Time Temperature Precipitation Wind Pressure Humidity
    00:00 -18°C° 0 mm 5 mps 753 mmHg 84%
    01:00 -18°C° 0.2 mm 5 mps 753 mmHg 85%
    02:00 -18°C° 0.2 mm 5 mps 752 mmHg 85%
    03:00 -17°C° 0.2 mm 5 mps 752 mmHg 86%
    04:00 -17°C° 0.2 mm 5 mps 752 mmHg 86%
    05:00 -15°C° 0.2 mm 5 mps 752 mmHg 86%
    06:00 -15°C° 0 mm 4 mps 753 mmHg 86%
    07:00 -15°C° 0.1 mm 4 mps 753 mmHg 86%
    08:00 -14°C° 0.1 mm 4 mps 753 mmHg 86%
    09:00 -14°C° 0.1 mm 4 mps 753 mmHg 87%
    10:00 -13°C° 0.2 mm 5 mps 753 mmHg 86%
    11:00 -13°C° 0.2 mm 5 mps 754 mmHg 85%
    12:00 -12°C° 0.2 mm 5 mps 754 mmHg 84%
    13:00 -12°C° 0.1 mm 5 mps 754 mmHg 84%
    14:00 -11°C° 0.1 mm 4 mps 754 mmHg 84%
    15:00 -11°C° 0.1 mm 4 mps 755 mmHg 85%
    16:00 -11°C° 0.1 mm 4 mps 755 mmHg 86%
    17:00 -11°C° 0.1 mm 4 mps 756 mmHg 87%
    18:00 -11°C° 0.1 mm 4 mps 756 mmHg 88%
    19:00 -11°C° 0.1 mm 4 mps 756 mmHg 89%
    20:00 -10°C° 0.1 mm 3 mps 757 mmHg 89%
    21:00 -10°C° 0.1 mm 3 mps 757 mmHg 90%
    22:00 -10°C° 0 mm 3 mps 758 mmHg 90%
    23:00 -10°C° 0 mm 3 mps 758 mmHg 91%

    Tomorrow, 14 November, Wednesday

    Time Temperature Precipitation Wind Pressure Humidity
    00:00 -10°C° 0 mm 3 mps 758 mmHg 91%
    01:00 -11°C° 0 mm 4 mps 758 mmHg 90%
    02:00 -11°C° 0 mm 4 mps 758 mmHg 90%
    03:00 -11°C° 0 mm 4 mps 759 mmHg 89%
    04:00 -11°C° 0.1 mm 4 mps 759 mmHg 88%
    05:00 -11°C° 0.1 mm 4 mps 759 mmHg 88%
    06:00 -12°C° 0.1 mm 5 mps 759 mmHg 87%
    07:00 -11°C° 0.2 mm 5 mps 759 mmHg 87%
    08:00 -11°C° 0.2 mm 5 mps 759 mmHg 87%
    09:00 -11°C° 0.2 mm 5 mps 759 mmHg 87%
    10:00 -11°C° 0.3 mm 6 mps 759 mmHg 86%
    11:00 -11°C° 0.3 mm 6 mps 759 mmHg 85%
    12:00 -11°C° 0.3 mm 6 mps 759 mmHg 85%
    13:00 -10°C° 0.2 mm 6 mps 759 mmHg 84%
    14:00 -10°C° 0.2 mm 6 mps 758 mmHg 83%
    15:00 -10°C° 0.2 mm 6 mps 758 mmHg 83%
    16:00 -10°C° 0.1 mm 6 mps 758 mmHg 83%
    17:00 -10°C° 0.1 mm 6 mps 758 mmHg 83%
    18:00 -10°C° 0.1 mm 6 mps 758 mmHg 83%
    19:00 -10°C° 0.1 mm 6 mps 758 mmHg 83%
    20:00 -10°C° 0.1 mm 6 mps 757 mmHg 82%
    21:00 -10°C° 0.1 mm 6 mps 757 mmHg 82%
    22:00 -10°C° 0.2 mm 6 mps 757 mmHg 83%
    23:00 -10°C° 0.2 mm 6 mps 756 mmHg 83%

    Day after tomorrow, 15 November, Thursday

    Time Temperature Precipitation Wind Pressure Humidity
    00:00 -11°C° 0.2 mm 6 mps 756 mmHg 84%
    01:00 -10°C° 0.2 mm 6 mps 755 mmHg 84%
    02:00 -10°C° 0.2 mm 6 mps 755 mmHg 83%
    03:00 -10°C° 0.2 mm 6 mps 754 mmHg 83%
    04:00 -11°C° 0.5 mm 7 mps 754 mmHg 84%
    05:00 -11°C° 0.5 mm 7 mps 753 mmHg 86%
    06:00 -11°C° 0.5 mm 7 mps 752 mmHg 88%
    07:00 -10°C° 0.6 mm 6 mps 752 mmHg 88%
    08:00 -10°C° 0.6 mm 6 mps 752 mmHg 88%
    09:00 -9°C° 0.6 mm 6 mps 752 mmHg 88%
    10:00 -9°C° 0.4 mm 6 mps 752 mmHg 88%
    11:00 -9°C° 0.4 mm 6 mps 751 mmHg 87%
    12:00 -8°C° 0.4 mm 5 mps 751 mmHg 86%
    13:00 -10°C° 0.2 mm 5 mps 752 mmHg 85%
    14:00 -10°C° 0.2 mm 5 mps 752 mmHg 85%
    15:00 -9°C° 0.2 mm 4 mps 752 mmHg 84%
    16:00 -9°C° 0.1 mm 4 mps 752 mmHg 85%
    17:00 -9°C° 0.1 mm 4 mps 753 mmHg 87%
    18:00 -10°C° 0.1 mm 4 mps 753 mmHg 88%
    19:00 -9°C° 0.2 mm 4 mps 753 mmHg 88%
    20:00 -9°C° 0.2 mm 4 mps 753 mmHg 89%
    21:00 -9°C° 0.2 mm 4 mps 753 mmHg 90%
    22:00 -9°C° 0.3 mm 4 mps 754 mmHg 90%
    23:00 -9°C° 0.3 mm 4 mps 754 mmHg 90%

    16 November, Friday

    Time Temperature Precipitation Wind Pressure Humidity
    00:00 -9°C° 0.3 mm 4 mps 755 mmHg 90%
    01:00 -12°C° 0.1 mm 4 mps 756 mmHg 88%
    02:00 -15°C° 0.1 mm 4 mps 757 mmHg 86%
    03:00 -18°C° 0.1 mm 4 mps 758 mmHg 84%
    04:00 -19°C° 0 mm 3 mps 759 mmHg 87%
    05:00 -21°C° 0 mm 2 mps 760 mmHg 90%
    06:00 -24°C° 0 mm 2 mps 761 mmHg 93%
    07:00 -24°C° 0 mm 2 mps 762 mmHg 93%
    08:00 -24°C° 0 mm 2 mps 762 mmHg 92%
    09:00 -23°C° 0 mm 2 mps 763 mmHg 91%
    10:00 -21°C° 0 mm 2 mps 763 mmHg 90%
    11:00 -20°C° 0 mm 2 mps 764 mmHg 89%
    12:00 -19°C° 0 mm 2 mps 764 mmHg 88%
    13:00 -19°C° 0 mm 2 mps 764 mmHg 89%
    14:00 -19°C° 0 mm 2 mps 765 mmHg 90%
    15:00 -19°C° 0 mm 2 mps 765 mmHg 92%
    16:00 -20°C° 0 mm 2 mps 765 mmHg 94%
    17:00 -21°C° 0 mm 2 mps 765 mmHg 96%
    18:00 -23°C° 0 mm 2 mps 766 mmHg 98%
    19:00 -23°C° 0 mm 2 mps 766 mmHg 98%
    20:00 -24°C° 0 mm 2 mps 766 mmHg 98%
    21:00 -21°C° 0 mm 1 mps 766 mmHg 98%
    22:00 -21°C° 0 mm 1 mps 766 mmHg 98%
    23:00 -21°C° 0 mm 1 mps 766 mmHg 98%

    17 November, Saturday

    Time Temperature Precipitation Wind Pressure Humidity
    00:00 -21°C° 0 mm 1 mps 766 mmHg 98%
    01:00 -24°C° 0 mm 2 mps 766 mmHg 98%
    02:00 -24°C° 0 mm 2 mps 766 mmHg 98%
    03:00 -24°C° 0 mm 2 mps 766 mmHg 98%
    04:00 -24°C° 0 mm 2 mps 766 mmHg 98%
    05:00 -21°C° 0 mm 1 mps 765 mmHg 98%
    06:00 -21°C° 0 mm 1 mps 765 mmHg 98%
    07:00 -21°C° 0 mm 1 mps 765 mmHg 98%
    08:00 -21°C° 0 mm 1 mps 765 mmHg 97%
    09:00 -21°C° 0 mm 1 mps 765 mmHg 97%
    10:00 -19°C° 0 mm 1 mps 765 mmHg 94%
    11:00 -18°C° 0 mm 1 mps 764 mmHg 91%
    12:00 -16°C° 0 mm 1 mps 764 mmHg 88%
    13:00 -16°C° 0 mm 1 mps 764 mmHg 90%
    14:00 -17°C° 0 mm 1 mps 763 mmHg 92%
    15:00 -17°C° 0 mm 0 mps 763 mmHg 93%
    16:00 -18°C° 0 mm 1 mps 763 mmHg 94%
    17:00 -19°C° 0 mm 1 mps 763 mmHg 95%
    18:00 -20°C° 0 mm 1 mps 763 mmHg 96%
    19:00 -20°C° 0 mm 1 mps 763 mmHg 95%
    20:00 -20°C° 0 mm 1 mps 762 mmHg 95%
    21:00 -21°C° 0 mm 1 mps 762 mmHg 94%
    22:00 -21°C° 0 mm 1 mps 762 mmHg 94%
    23:00 -21°C° 0 mm 1 mps 762 mmHg 93%

    18 November, Sunday

    Time Temperature Precipitation Wind Pressure Humidity
    00:00 -21°C° 0 mm 1 mps 762 mmHg 92%
    01:00 -21°C° 0 mm 1 mps 762 mmHg 92%
    02:00 -22°C° 0 mm 1 mps 762 mmHg 91%
    03:00 -22°C° 0 mm 1 mps 762 mmHg 90%
    04:00 -22°C° 0 mm 1 mps 762 mmHg 90%
    05:00 -22°C° 0 mm 1 mps 762 mmHg 90%
    06:00 -22°C° 0 mm 1 mps 762 mmHg 89%
    07:00 -21°C° 0 mm 1 mps 762 mmHg 89%
    08:00 -21°C° 0 mm 1 mps 762 mmHg 89%
    09:00 -21°C° 0 mm 1 mps 762 mmHg 89%
    10:00 -19°C° 0 mm 1 mps 762 mmHg 86%
    11:00 -17°C° 0 mm 1 mps 762 mmHg 83%
    12:00 -15°C° 0 mm 1 mps 762 mmHg 80%
    13:00 -15°C° 0 mm 1 mps 761 mmHg 84%
    14:00 -15°C° 0 mm 1 mps 761 mmHg 87%
    15:00 -16°C° 0 mm 1 mps 761 mmHg 91%
    16:00 -17°C° 0 mm 1 mps 761 mmHg 91%
    17:00 -17°C° 0 mm 1 mps 761 mmHg 92%
    18:00 -18°C° 0 mm 1 mps 761 mmHg 92%
    19:00 -19°C° 0 mm 1 mps 760 mmHg 92%
    20:00 -19°C° 0 mm 1 mps 760 mmHg 92%
    21:00 -19°C° 0 mm 1 mps 760 mmHg 92%
    22:00 -19°C° 0 mm 1 mps 759 mmHg 92%
    23:00 -19°C° 0 mm 1 mps 759 mmHg 92%
    Show more